Litchfield, MN

2:10 PM CDT on August 30, 2016 (GMT -0500)
Litchfield Municipal

Weather History for KLJF - November, 2012

Change the Weather History Date:

Thursday, November 29, 2012

  Actual Average Record
Temperature  
Mean Temperature 29 °F -  
Max Temperature 37 °F 32 °F 60 °F (1998)
Min Temperature 21 °F 15 °F -11 °F (1985)
Degree Days  
Heating Degree Days 36    
Moisture  
Dew Point 26 °F    
Average Humidity 84    
Maximum Humidity 100    
Minimum Humidity 65    
Precipitation  
Precipitation 0.00 in - - ()
Sea Level Pressure  
Sea Level Pressure 30.06 in    
Wind  
Wind Speed 5 mph (ENE)    
Max Wind Speed 16 mph    
Max Gust Speed 21 mph    
Visibility 9 miles    
Events      
Averages and records for this station are not official NWS values.
T = Trace of Precipitation, MM = Missing Value Source: NWS Daily Summary

Daily Weather History Graph

Daily Weather History Graph

Search for Another Location

Airport or City:

Trip Planner

Search our weather history database for the weather conditions in past years. The results will help you decide how hot, cold, wet, or windy it might be!

Date:

Astronomy

Nov. 29, 2012 Rise Set
Actual Time 7:34 AM CST 4:38 PM CST
Civil Twilight 7:01 AM CST 5:11 PM CST
Nautical Twilight 6:24 AM CST 5:47 PM CST
Astronomical Twilight 5:49 AM CST 6:23 PM CST
Moon 5:41 PM CST (11/29) 8:22 AM CST (11/29)
Length of Visible Light 10h 09m
Length of Day
9h 03m
Full, 99% of the Moon is Illuminated
Nov 29
Full
Dec 6
Last Quarter
Dec 13
New
Dec 19
First Quarter
Dec 28
Full

Hourly Weather History & Observations

Time (CST) Temp. Windchill Dew Point Humidity Pressure Visibility Wind Dir Wind Speed Gust Speed Precip Events Conditions
12:13 AM 32.0 °F - 26.6 °F 80% 30.04 in 10.0 mi Calm Calm - N/A   Clear
12:33 AM 30.2 °F 26.7 °F 26.6 °F 86% 30.03 in 10.0 mi SSE 3.5 mph - N/A   Clear
12:53 AM 30.2 °F - 24.8 °F 80% 30.03 in 10.0 mi Calm Calm - N/A   Clear
1:13 AM 28.4 °F - 24.8 °F 86% 30.04 in 10.0 mi Calm Calm - N/A   Clear
1:33 AM 28.4 °F - 24.8 °F 86% 30.04 in 10.0 mi Calm Calm - N/A   Clear
1:53 AM 28.4 °F - 24.8 °F 86% 30.04 in 10.0 mi Calm Calm - N/A   Clear
2:13 AM 26.6 °F - 21.2 °F 80% 30.04 in 10.0 mi Calm Calm - N/A   Clear
2:33 AM 24.8 °F - 21.2 °F 86% 30.05 in 10.0 mi Calm Calm - N/A   Clear
2:53 AM 26.6 °F - 23.0 °F 86% 30.05 in 10.0 mi Calm Calm - N/A   Clear
3:13 AM 24.8 °F - 23.0 °F 93% 30.04 in 10.0 mi Calm Calm - N/A   Clear
3:33 AM 23.0 °F - 23.0 °F 100% 30.04 in 10.0 mi Calm Calm - N/A   Clear
4:13 AM 23.0 °F 18.4 °F 21.2 °F 93% 30.03 in 10.0 mi NNE 3.5 mph - N/A   Clear
4:33 AM 24.8 °F - 23.0 °F 93% 30.04 in 10.0 mi Calm Calm - N/A   Clear
4:53 AM 24.8 °F - 24.8 °F 100% 30.04 in 10.0 mi Calm Calm - N/A   Clear
5:13 AM 24.8 °F 20.5 °F 23.0 °F 93% 30.04 in 7.0 mi NE 3.5 mph - N/A   Clear
5:33 AM 24.8 °F - 23.0 °F 93% 30.04 in 7.0 mi Calm Calm - N/A   Clear
5:53 AM 24.8 °F 20.5 °F 23.0 °F 93% 30.04 in 7.0 mi NE 3.5 mph - N/A   Clear
6:13 AM 21.2 °F 16.4 °F 21.2 °F 100% 30.05 in 7.0 mi NE 3.5 mph - N/A   Clear
6:33 AM 24.8 °F 19.1 °F 23.0 °F 93% 30.05 in 7.0 mi NE 4.6 mph - N/A   Clear
6:53 AM 24.8 °F - 23.0 °F 93% 30.06 in 7.0 mi Calm Calm - N/A   Clear
7:13 AM 24.8 °F 16.9 °F 23.0 °F 93% 30.06 in 7.0 mi NNE 6.9 mph - N/A   Clear
7:33 AM 24.8 °F 17.9 °F 23.0 °F 93% 30.07 in 7.0 mi NE 5.8 mph - N/A   Clear
7:53 AM 24.8 °F 17.9 °F 23.0 °F 93% 30.07 in 5.0 mi NE 5.8 mph - N/A   Clear
8:13 AM 24.8 °F 16.9 °F 24.8 °F 100% 30.07 in 5.0 mi NE 6.9 mph - N/A   Clear
8:33 AM 24.8 °F 16.9 °F 24.8 °F 100% 30.07 in 5.0 mi ENE 6.9 mph - N/A   Clear
8:53 AM 26.6 °F 19.1 °F 26.6 °F 100% 30.07 in 5.0 mi ENE 6.9 mph - N/A   Clear
9:13 AM 28.4 °F 21.2 °F 26.6 °F 93% 30.08 in 7.0 mi ENE 6.9 mph - N/A   Clear
9:33 AM 30.2 °F 20.8 °F 26.6 °F 86% 30.07 in 7.0 mi ENE 11.5 mph - N/A   Clear
10:13 AM 33.8 °F 25.8 °F 26.6 °F 75% 30.08 in 10.0 mi ENE 10.4 mph - N/A   Clear
10:33 AM 33.8 °F 25.3 °F 26.6 °F 75% 30.08 in 10.0 mi ENE 11.5 mph - N/A   Clear
10:53 AM 33.8 °F 25.8 °F 26.6 °F 75% 30.08 in 10.0 mi ENE 10.4 mph - N/A   Clear
11:13 AM 35.6 °F 28.0 °F 26.6 °F 70% 30.08 in 10.0 mi ENE 10.4 mph - N/A   Clear
11:33 AM 35.6 °F 26.6 °F 26.6 °F 70% 30.07 in 10.0 mi ENE 13.8 mph - N/A   Clear
11:53 AM 37.4 °F 30.3 °F 26.6 °F 65% 30.07 in 7.0 mi NE 10.4 mph - N/A   Clear
12:13 PM 37.4 °F 29.8 °F 26.6 °F 65% 30.07 in 10.0 mi ENE 11.5 mph - N/A   Clear
12:33 PM 37.4 °F 29.8 °F 26.6 °F 65% 30.05 in 10.0 mi NE 11.5 mph - N/A   Clear
12:53 PM 37.4 °F 29.8 °F 26.6 °F 65% 30.05 in 10.0 mi ENE 11.5 mph - N/A   Clear
1:13 PM 37.4 °F 29.8 °F 26.6 °F 65% 30.06 in 10.0 mi NE 11.5 mph 16.1 mph N/A   Clear
1:33 PM 37.4 °F 29.3 °F 26.6 °F 65% 30.04 in 10.0 mi ENE 12.7 mph 16.1 mph N/A   Clear
1:53 PM 37.4 °F 30.3 °F 28.4 °F 70% 30.04 in 10.0 mi ENE 10.4 mph - N/A   Clear
2:13 PM 37.4 °F 30.3 °F 26.6 °F 65% 30.04 in 10.0 mi ENE 10.4 mph - N/A   Clear
2:33 PM 37.4 °F 30.8 °F 26.6 °F 65% 30.04 in 10.0 mi NE 9.2 mph - N/A   Clear
2:53 PM 37.4 °F 30.3 °F 28.4 °F 70% 30.04 in 10.0 mi NE 10.4 mph - N/A   Clear
3:13 PM 37.4 °F 31.4 °F 28.4 °F 70% 30.04 in 10.0 mi ENE 8.1 mph - N/A   Clear
3:33 PM 37.4 °F 31.4 °F 28.4 °F 70% 30.04 in 10.0 mi ENE 8.1 mph - N/A   Clear
3:53 PM 35.6 °F 27.1 °F 26.6 °F 70% 30.03 in 10.0 mi ENE 12.7 mph 19.6 mph N/A   Clear
4:13 PM 35.6 °F 25.9 °F 26.6 °F 70% 30.02 in 10.0 mi East 16.1 mph 20.7 mph N/A   Clear
4:33 PM 33.8 °F 27.0 °F 26.6 °F 75% 30.04 in 10.0 mi ENE 8.1 mph - N/A   Clear
4:54 PM 33.8 °F 27.0 °F 26.6 °F 75% 30.05 in 10.0 mi ENE 8.1 mph - N/A   Clear
5:13 PM 33.8 °F 27.0 °F 28.4 °F 81% 30.05 in 10.0 mi ENE 8.1 mph - N/A   Clear
5:33 PM 33.8 °F 25.3 °F 28.4 °F 81% 30.06 in 10.0 mi ENE 11.5 mph - N/A   Clear
5:54 PM 33.8 °F 25.8 °F 28.4 °F 81% 30.07 in 10.0 mi ENE 10.4 mph - N/A   Clear
6:13 PM 32.0 °F 22.5 °F 28.4 °F 87% 30.07 in 10.0 mi ENE 12.7 mph 19.6 mph N/A   Clear
6:33 PM 32.0 °F 24.8 °F 28.4 °F 87% 30.09 in 10.0 mi ENE 8.1 mph - N/A   Clear
6:53 PM 30.2 °F 22.6 °F 28.4 °F 93% 30.09 in 10.0 mi ENE 8.1 mph - N/A   Clear
7:13 PM 30.2 °F 21.9 °F 28.4 °F 93% 30.09 in 10.0 mi ENE 9.2 mph - N/A   Clear
7:34 PM 30.2 °F 20.8 °F 28.4 °F 93% 30.08 in 10.0 mi ENE 11.5 mph 16.1 mph N/A   Clear
7:53 PM 30.2 °F 20.2 °F 28.4 °F 93% 30.08 in 10.0 mi ENE 12.7 mph - N/A   Clear
8:13 PM 30.2 °F 19.3 °F 28.4 °F 93% 30.07 in 10.0 mi ENE 15.0 mph - N/A   Clear
8:34 PM 30.2 °F 20.2 °F 28.4 °F 93% 30.08 in 10.0 mi ENE 12.7 mph - N/A   Clear
8:53 PM 30.2 °F 21.3 °F 28.4 °F 93% 30.08 in 10.0 mi ENE 10.4 mph 16.1 mph N/A   Clear
9:13 PM 30.2 °F 19.8 °F 28.4 °F 93% 30.07 in 10.0 mi ENE 13.8 mph - N/A   Clear
9:34 PM 30.2 °F 20.2 °F 28.4 °F 93% 30.08 in 10.0 mi ENE 12.7 mph 16.1 mph N/A   Clear
9:53 PM 30.2 °F 20.8 °F 28.4 °F 93% 30.08 in 10.0 mi ENE 11.5 mph 17.3 mph N/A   Clear
10:13 PM 30.2 °F 21.3 °F 26.6 °F 86% 30.08 in 10.0 mi ENE 10.4 mph 17.3 mph N/A   Scattered Clouds
10:34 PM 30.2 °F 21.9 °F 26.6 °F 86% 30.09 in 10.0 mi ENE 9.2 mph - N/A   Scattered Clouds
10:53 PM 30.2 °F 21.9 °F 26.6 °F 86% 30.09 in 10.0 mi ENE 9.2 mph - N/A   Clear
11:13 PM 30.2 °F 21.3 °F 26.6 °F 86% 30.08 in 10.0 mi ENE 10.4 mph - N/A   Scattered Clouds
11:34 PM 28.4 °F 18.5 °F 26.6 °F 93% 30.08 in 10.0 mi ENE 11.5 mph 16.1 mph N/A   Scattered Clouds
11:53 PM 28.4 °F 19.7 °F 26.6 °F 93% 30.09 in 10.0 mi NE 9.2 mph - N/A   Scattered Clouds